Tracking 31027 objects as of 19-Jul-2025
HD Live streaming from Space Station
objects crossing your sky now

OPS 1264 (DMSP 4A F4)

Track OPS 1264 (DMSP 4A F4) now!
10-day predictions
OPS 1264 (DMSP 4A F4) is classified as:


NORAD ID: 2980
Int'l Code: 1967-096A
Perigee: 625.4 km
Apogee: 759.1 km
Inclination: 99.2 °
Period: 98.5 minutes
Semi major axis: 7063 km
RCS: 0.6338 m2 (medium)
Launch date: October 11, 1967
Source: United States (US)
Launch site: AIR FORCE WESTERN TEST RANGE (AFWTR)
Your satellite tracking list
FENGYUN 1C DEB
Track 1 satellite(s)




NASA's NSSDC Master Catalog

Two Line Element Set (TLE):
1 02980U 67096A   25199.03291696  .00000442  00000-0  93601-4 0  9992
2 02980  99.2260 231.7292 0094677  48.5992 312.3295 14.62497757 38272
Source of the keplerian elements: AFSPC